Meridian NAS, MS

10:45 AM CDT on March 30, 2017 (GMT -0500)
Meridian Naval Air Station

Weather History for KNMM - April, 2012

Change the Weather History Date:

Sunday, April 22, 2012

  Actual Average Record
Temperature  
Mean Temperature 58 °F -  
Max Temperature 75 °F 73 °F 86 °F (2008)
Min Temperature 43 °F 52 °F 43 °F (2009)
Degree Days  
Heating Degree Days 7    
Growing Degree Days 8 (Base 50)    
Moisture  
Dew Point 43 °F    
Average Humidity 64    
Maximum Humidity 97    
Minimum Humidity 38    
Precipitation  
Precipitation 0.00 in - - ()
Sea Level Pressure  
Sea Level Pressure 29.91 in    
Wind  
Wind Speed 12 mph (NW)    
Max Wind Speed 15 mph    
Max Gust Speed 23 mph    
Visibility 10 miles    
Events      
Averages and records for this station are not official NWS values.
T = Trace of Precipitation, MM = Missing Value Source: NWS Daily Summary

Daily Weather History Graph

Daily Weather History Graph

Search for Another Location

Airport or City:

Trip Planner

Search our weather history database for the weather conditions in past years. The results will help you decide how hot, cold, wet, or windy it might be!

Date:

Astronomy

Apr. 22, 2012 Rise Set
Actual Time 6:16 AM CDT 7:29 PM CDT
Civil Twilight 5:50 AM CDT 7:55 PM CDT
Nautical Twilight 5:20 AM CDT 8:25 PM CDT
Astronomical Twilight 4:48 AM CDT 8:57 PM CDT
Moon 6:52 AM CDT (4/22) 8:59 PM CDT (4/22)
Length of Visible Light 14h 04m
Length of Day
13h 13m
New Moon, 2% of the Moon is Illuminated
Apr 22
New Moon
Apr 29
First Quarter
May 5
Full
May 12
Last Quarter
May 20
New

Hourly Weather History & Observations

Time (CDT) Temp. Dew Point Humidity Pressure Visibility Wind Dir Wind Speed Gust Speed Precip Events Conditions
12:56 AM 48.0 °F 45.0 °F 89% 29.92 in 10.0 mi North - - N/A   Clear
1:26 AM 48.2 °F 44.6 °F 87% 29.89 in 10.0 mi North - - N/A   Mostly Cloudy
1:56 AM 48.0 °F 44.1 °F 86% 29.91 in 10.0 mi North - - N/A   Overcast
2:28 AM 48.2 °F 44.6 °F 87% 29.88 in 10.0 mi North - - N/A   Overcast
2:56 AM 46.9 °F 43.0 °F 86% 29.91 in 10.0 mi North - - N/A   Overcast
3:56 AM 46.9 °F 44.1 °F 90% 29.92 in 10.0 mi North - - N/A   Mostly Cloudy
4:56 AM 45.0 °F 43.0 °F 93% 29.92 in 9.0 mi North - - N/A   Mostly Cloudy
5:15 AM 44.6 °F 42.8 °F 93% 29.89 in 8.0 mi North - - N/A   Overcast
5:41 AM 44.6 °F 42.8 °F 93% 29.89 in 8.0 mi North - - N/A   Scattered Clouds
5:56 AM 44.1 °F 42.1 °F 93% 29.93 in 8.0 mi North - - N/A   Clear
6:56 AM 43.0 °F 42.1 °F 97% 29.94 in 6.0 mi North - - N/A   Clear
7:56 AM 48.0 °F 43.0 °F 83% 29.95 in 8.0 mi North - - N/A   Clear
8:56 AM 55.9 °F 41.0 °F 57% 29.94 in 10.0 mi North - - N/A   Clear
9:56 AM 60.1 °F 41.0 °F 49% 29.94 in 10.0 mi North - - N/A   Clear
10:56 AM 64.0 °F 41.0 °F 43% 29.93 in 10.0 mi North - - N/A   Clear
11:56 AM 66.0 °F 42.1 °F 42% 29.92 in 10.0 mi North - - N/A   Clear
12:56 PM 69.1 °F 43.0 °F 39% 29.90 in 10.0 mi North - - N/A   Clear
1:56 PM 72.0 °F 45.0 °F 38% 29.87 in 10.0 mi North - - N/A   Partly Cloudy
2:56 PM 73.0 °F 46.0 °F 38% 29.85 in 10.0 mi North - - N/A   Partly Cloudy
3:56 PM 72.0 °F 45.0 °F 38% 29.84 in 10.0 mi NW 11.5 mph 19.6 mph N/A   Scattered Clouds
4:56 PM 71.1 °F 44.1 °F 38% 29.85 in 10.0 mi NW 13.8 mph 20.7 mph N/A   Scattered Clouds
5:56 PM 70.0 °F 45.0 °F 41% 29.86 in 10.0 mi NW 11.5 mph 19.6 mph N/A   Scattered Clouds
6:56 PM 68.0 °F 42.1 °F 39% 29.87 in 10.0 mi NW 13.8 mph - N/A   Clear
7:56 PM 64.0 °F 41.0 °F 43% 29.90 in 10.0 mi NNW 11.5 mph - N/A   Clear
8:56 PM 62.1 °F 42.1 °F 48% 29.94 in 10.0 mi NNW 11.5 mph - N/A   Clear
9:56 PM 57.9 °F 43.0 °F 58% 29.97 in 10.0 mi NW 4.6 mph - N/A   Partly Cloudy
10:56 PM 60.1 °F 43.0 °F 53% 29.99 in 10.0 mi NNW 15.0 mph 23.0 mph N/A   Overcast
11:56 PM 55.9 °F 44.1 °F 64% 30.01 in 10.0 mi NNW 10.4 mph - N/A   Clear